Peosta, IA

9:13 PM CST on December 04, 2016 (GMT -0600)
Dubuque Regional

Weather History for KDBQ - May, 2013

Change the Weather History Date:

Saturday, May 25, 2013

  Actual Average Record
Temperature  
Mean Temperature 50 °F 62 °F  
Max Temperature 54 °F 72 °F 91 °F (1911)
Min Temperature 45 °F 51 °F 34 °F (1925)
Degree Days  
Heating Degree Days 15 5  
Month to date heating degree days 194 200  
Since 1 July heating degree days 7234 7021  
Cooling Degree Days 0 2  
Month to date cooling degree days 24 20  
Year to date cooling degree days 32 25  
Moisture  
Dew Point 45 °F    
Average Humidity 82    
Maximum Humidity 93    
Minimum Humidity 71    
Precipitation  
Precipitation 0.47 in 0.14 in 2.80 in (1896)
Month to date precipitation 4.99 3.36  
Year to date precipitation 19.52 12.04  
Snow  
Snow 0.00 in 0.00 in - ()
Month to date snowfall 0.0 0.1  
Since 1 July snowfall 54.5 42.0  
Snow Depth 0.00 in    
Sea Level Pressure  
Sea Level Pressure 30.32 in    
Wind  
Wind Speed 9 mph (SE)    
Max Wind Speed 16 mph    
Max Gust Speed 21 mph    
Visibility 9 miles    
Events Rain    
T = Trace of Precipitation, MM = Missing Value Source: NWS Daily Summary

Daily Weather History Graph

Daily Weather History Graph

Search for Another Location

Airport or City:

Trip Planner

Search our weather history database for the weather conditions in past years. The results will help you decide how hot, cold, wet, or windy it might be!

Date:

Astronomy

May. 25, 2013 Rise Set
Actual Time 5:32 AM CDT 8:27 PM CDT
Civil Twilight 4:59 AM CDT 9:01 PM CDT
Nautical Twilight 4:16 AM CDT 9:43 PM CDT
Astronomical Twilight 3:27 AM CDT 10:33 PM CDT
Moon 9:15 PM CDT (5/25) 5:59 AM CDT (5/25)
Length of Visible Light 16h 01m
Length of Day
14h 55m
Full, 100% of the Moon is Illuminated
May 25
Full
May 31
Last Quarter
Jun 8
New
Jun 16
First Quarter
Jun 23
Full

Hourly Weather History & Observations

Time (CDT) Temp. Windchill Dew Point Humidity Pressure Visibility Wind Dir Wind Speed Gust Speed Precip Events Conditions
12:53 AM 54.0 °F - 45.0 °F 72% 30.28 in 10.0 mi South 9.2 mph - 0.00 in   Overcast
1:53 AM 53.1 °F - 46.9 °F 80% 30.32 in 6.0 mi SSE 6.9 mph - 0.10 in Rain Rain
2:53 AM 51.1 °F - 48.0 °F 89% 30.28 in 9.0 mi East 13.8 mph - 0.12 in Rain Light Rain
3:53 AM 50.0 °F - 48.9 °F 96% 30.31 in 8.0 mi SE 8.1 mph - 0.00 in Rain Light Rain
4:53 AM 50.0 °F - 48.0 °F 93% 30.32 in 10.0 mi South 6.9 mph - 0.01 in   Overcast
5:53 AM 48.9 °F - 46.0 °F 90% 30.34 in 10.0 mi SE 8.1 mph - 0.00 in   Overcast
6:53 AM 48.9 °F - 46.9 °F 93% 30.34 in 9.0 mi ESE 10.4 mph - N/A   Overcast
7:53 AM 48.0 °F - 44.1 °F 86% 30.35 in 10.0 mi ESE 11.5 mph 18.4 mph N/A   Overcast
8:53 AM 48.0 °F - 42.1 °F 80% 30.37 in 10.0 mi SSE 4.6 mph - N/A   Overcast
9:53 AM 48.0 °F - 43.0 °F 83% 30.37 in 5.0 mi SSE 9.2 mph - 0.02 in Rain Rain
10:53 AM 46.9 °F - 43.0 °F 86% 30.36 in 8.0 mi SE 15.0 mph - 0.08 in Rain Light Rain
11:53 AM 48.0 °F - 44.1 °F 86% 30.30 in 10.0 mi ESE 15.0 mph 20.7 mph 0.01 in   Overcast
12:53 PM 48.0 °F - 44.1 °F 86% 30.33 in 8.0 mi South 16.1 mph - 0.00 in Rain Light Rain
1:53 PM 46.9 °F - 44.1 °F 90% 30.33 in 8.0 mi SSE 10.4 mph - 0.02 in Rain Light Rain
2:53 PM 48.0 °F - 46.9 °F 96% 30.34 in 8.0 mi SSE 10.4 mph - 0.05 in Rain Light Rain
3:53 PM 48.0 °F - 46.0 °F 93% 30.33 in 7.0 mi East 8.1 mph - 0.05 in Rain Light Rain
4:53 PM 50.0 °F - 46.9 °F 89% 30.32 in 7.0 mi East 9.2 mph - 0.01 in   Overcast
5:53 PM 50.0 °F - 46.9 °F 89% 30.32 in 10.0 mi East 6.9 mph - N/A   Overcast
6:53 PM 50.0 °F - 45.0 °F 83% 30.29 in 10.0 mi ESE 11.5 mph 18.4 mph N/A   Overcast
7:53 PM 50.0 °F - 45.0 °F 83% 30.30 in 10.0 mi ESE 6.9 mph - N/A   Overcast
8:53 PM 50.0 °F - 46.0 °F 86% 30.29 in 10.0 mi East 6.9 mph - N/A   Overcast
9:53 PM 50.0 °F - 46.0 °F 86% 30.29 in 10.0 mi East 9.2 mph - N/A   Overcast
10:53 PM 48.0 °F - 44.1 °F 86% 30.30 in 10.0 mi SE 5.8 mph - N/A   Scattered Clouds
11:53 PM 46.0 °F 44.8 °F 43.0 °F 89% 30.30 in 9.0 mi East 3.5 mph - N/A   Clear